Location: Mauries
(43.6188°N, 0.3322°W)
Time: 19:53:03
(UTC+00:00)

Cosmos 1515 Rocket - Pass Details

Date: 14 January 2026
Orbit: 599 x 623 km, 82.5° (Epoch: 11 February)

Event Time Altitude Azimuth Distance (km) Brightness Sun altitude
Exits shadow 05:21:52 56° 348° (NNW) 738 3.7 -23.1°
Maximum altitude 05:22:46 87° 267° (W) 624 3.4 -22.9°
Drops below altitude 10° 05:27:08 10° 174° (S) 1,966 6.3 -22.1°
Sets 05:29:20 0° 174° (S) 2,862 7.2 -21.7°
